Weather in Lesnoy

Russia / Kirov Oblast     59°46′49″N   52°07′46″E
temp.,
°C
wind,
m/s
gust,
m/s
humid.,
%
clouds,
%
prec.,
mm/h
press.,
hPa
HPBL,
m
28 january, thu
thu2800:00−2ssw61295100 3.5 1012691
03:00−4ssw61294100 5.4 1011609
06:00−4ssw51394100 1.0 1011552
09:00−4ssw51192100 1.3 1012550
12:00−2sw4992100 0.1 1013699
15:00−2ssw3795100 0.1 1015400
18:00−2ssw3795100 0.1 1016305
21:00−4s2697100 0.2 1016215
29 january, fri
fri2900:00−4sse2597100 0.6 1016233
03:00−5sse3695100 1.0 1017340
06:00−8sse3795100 0.0 1016238
09:00−9se3795100 0.0 1016262
12:00−7se3693100 0.0 1015272
15:00−6ese3793100 0.0 1013331
18:00−7se3994100 0.0 1012388
21:00−7se3994100 0.1 1011477
30 january, sat
sat3000:00−6se4995100 0.3 1010449
03:00−6se41094100 0.7 1008483
06:00−6sse41194100 0.1 1006563
09:00−5sse4995100 0.8 1005647
12:00−4sse4894100 0.7 1005541
15:00−4sse3895100 1.1 1004533
18:00−4s4894100 0.1 1003540
21:00−4s31096100 0.6 1004592
31 january, sun
sun3100:00−5s3896100 0.3 1005335
03:00−7ssw259793 0.3 1006110
06:00−9s239884 0.0 100742
09:00−8s379790 0.1 1008204
12:00−5s399393 0.0 1009486
15:00−3sse5118897 0.0 1007602
18:00−2sse61393100 0.7 1006640
21:000sse61585100 0.8 1003842
1 february, mon
mon100:00−1sse71977100 0.0 10001314
03:00−2sse81793100 0.4 9971337
06:00−2s71693100 1.1 9961392
09:00−3s71491100 1.8 9961154
12:00−3ssw71292100 0.3 9981052
15:00−5sw61290100 0.6 10031065
18:00−7wsw61389100 0.2 1007930
21:00−8sw51291100 0.3 1011674